Total_Precipitation_Accumulation
2.48 2.58 2.56 2.49 2.49 2.42 2.48 2.59 2.67 2.53 2.24 1.97 1.90 1.80 1.83 1.87 2.06 1.71 1.69 1.90 1.70 1.59 1.52 1.48 1.45 1.37 1.33 1.34 1.34 1.34 1.35 1.40 1.50 1.59 1.69 1.79 1.94 2.16
2.20 2.35 2.40 2.38 2.50 2.55 2.63 2.66 2.67 2.66 2.47 2.08 1.98 1.88 1.88 1.81 2.12 1.83 1.78 1.90 1.66 1.47 1.34 1.27 1.23 1.18 1.16 1.20 1.22 1.26 1.27 1.23 1.23 1.28 1.38 1.47 1.60 1.74
2.02 2.10 2.18 2.25 2.38 2.42 2.50 2.51 2.58 2.62 2.53 2.21 2.08 2.07 2.07 2.01 2.04 1.91 1.82 1.76 1.61 1.49 1.30 1.18 1.14 1.10 1.09 1.13 1.17 1.15 1.19 1.22 1.23 1.22 1.24 1.30 1.37 1.44
1.87 1.93 1.98 2.02 2.10 2.06 2.15 2.21 2.24 2.33 2.34 2.31 2.28 2.20 2.18 2.12 2.04 1.87 1.62 1.44 1.40 1.38 1.24 1.17 1.14 1.12 1.15 1.18 1.19 1.18 1.14 1.10 1.10 1.15 1.20 1.19 1.19 1.26
1.62 1.66 1.72 1.76 1.72 1.67 1.72 1.73 1.83 1.95 2.15 2.18 2.13 2.19 2.16 2.16 2.26 1.98 1.73 1.68 1.30 1.24 1.17 1.16 1.15 1.12 1.10 1.09 1.09 1.07 1.05 0.98 0.90 0.91 1.00 1.10 1.13 1.11
1.37 1.40 1.40 1.36 1.33 1.36 1.37 1.43 1.58 1.84 2.03 2.06 1.94 1.94 2.00 1.99 2.18 2.08 1.96 1.83 1.55 1.17 1.12 1.04 1.06 1.06 1.03 0.96 0.92 0.90 0.91 0.94 0.94 0.90 0.89 0.90 0.95 0.98
1.22 1.20 1.15 1.13 1.16 1.13 1.06 1.18 1.43 1.70 1.81 1.88 1.87 1.81 1.79 1.87 1.92 1.82 1.81 1.83 1.72 1.41 1.29 1.06 0.97 1.00 1.02 1.01 0.96 0.87 0.80 0.79 0.83 0.84 0.84 0.84 0.86 0.90
1.20 1.10 1.02 0.97 0.95 0.95 0.96 1.04 1.19 1.33 1.46 1.60 1.65 1.66 1.65 1.70 1.81 1.82 1.81 1.84 1.78 1.55 1.52 1.35 1.12 1.18 1.12 1.03 0.97 0.88 0.85 0.83 0.81 0.82 0.87 0.88 0.87 0.87
1.23 1.23 1.06 0.89 0.97 1.00 1.02 1.05 1.07 1.12 1.23 1.41 1.52 1.50 1.57 1.70 1.91 1.89 1.90 1.88 1.78 1.61 1.69 1.63 1.44 1.38 1.12 0.97 0.99 0.90 0.84 0.82 0.81 0.80 0.83 0.86 0.89 0.90
1.13 1.16 1.18 1.13 1.06 1.09 1.06 1.07 1.08 1.12 1.19 1.26 1.41 1.45 1.44 1.58 1.80 1.81 1.84 1.84 1.75 1.64 1.73 1.78 1.50 1.40 1.11 1.13 1.04 0.87 0.80 0.80 0.79 0.73 0.74 0.77 0.85 0.91
1.01 0.99 0.98 0.97 0.98 1.06 1.13 1.22 1.21 1.17 1.04 1.08 1.14 1.23 1.36 1.45 1.53 1.61 1.76 1.92 1.84 1.67 1.65 1.76 1.60 1.46 1.29 1.30 1.13 0.96 0.88 0.90 0.85 0.72 0.66 0.67 0.72 0.84
0.96 0.92 0.88 0.82 0.81 0.82 0.91 1.13 1.25 1.17 1.09 1.09 1.20 1.35 1.43 1.49 1.47 1.53 1.70 1.84 1.83 1.83 1.64 1.69 1.67 1.62 1.57 1.33 1.20 1.14 1.11 1.15 1.05 0.86 0.72 0.68 0.72 0.79
0.88 0.87 0.84 0.73 0.64 0.66 0.79 0.96 1.04 1.03 1.14 1.36 1.56 1.60 1.59 1.54 1.43 1.41 1.57 1.72 1.78 1.78 1.55 1.62 1.69 1.73 1.79 1.54 1.22 1.21 1.29 1.37 1.33 1.15 0.93 0.84 0.82 0.79
0.84 0.84 0.78 0.71 0.62 0.65 0.73 0.85 0.90 1.01 1.26 1.54 1.69 1.65 1.44 1.28 1.27 1.27 1.34 1.50 1.61 1.58 1.50 1.56 1.69 1.74 1.73 1.58 1.37 1.28 1.38 1.49 1.53 1.43 1.21 1.10 1.05 0.98
0.73 0.73 0.71 0.72 0.73 0.82 0.87 0.89 0.98 1.17 1.38 1.49 1.50 1.41 1.29 1.23 1.26 1.30 1.28 1.42 1.49 1.35 1.24 1.29 1.49 1.60 1.69 1.62 1.53 1.54 1.61 1.73 1.71 1.67 1.55 1.31 1.17 1.13
0.72 0.78 0.85 0.91 0.93 0.95 0.99 1.08 1.15 1.24 1.26 1.34 1.33 1.27 1.21 1.26 1.30 1.26 1.29 1.40 1.52 1.45 1.31 1.26 1.36 1.53 1.62 1.57 1.63 1.71 1.75 1.96 1.92 1.79 1.73 1.62 1.43 1.23
0.71 0.85 1.02 1.10 1.12 1.09 1.06 1.09 1.13 1.15 1.18 1.16 1.16 1.17 1.21 1.21 1.21 1.19 1.25 1.30 1.42 1.40 1.39 1.37 1.39 1.45 1.42 1.42 1.52 1.56 1.64 1.81 1.89 1.83 1.81 1.88 1.84 1.59
0.75 0.98 1.12 1.16 1.17 1.07 1.01 0.98 0.97 0.99 0.97 0.99 1.04 1.10 1.14 1.12 1.12 1.13 1.18 1.26 1.34 1.31 1.32 1.36 1.41 1.55 1.56 1.41 1.42 1.49 1.49 1.68 1.79 1.75 1.67 1.82 1.96 1.75
0.72 0.86 0.99 1.09 1.12 1.01 0.95 0.95 0.95 0.93 0.93 0.96 1.02 1.04 1.07 1.06 1.09 1.12 1.14 1.21 1.26 1.28 1.27 1.26 1.30 1.42 1.52 1.50 1.43 1.45 1.48 1.54 1.60 1.61 1.61 1.65 1.82 1.75
0.78 0.83 0.88 0.98 1.05 1.01 0.96 0.98 0.98 0.97 0.98 0.99 1.00 1.05 1.10 1.11 1.07 1.07 1.10 1.11 1.16 1.21 1.26 1.27 1.27 1.28 1.34 1.36 1.49 1.48 1.39 1.30 1.29 1.38 1.44 1.51 1.60 1.60
0.78 0.79 0.80 0.85 0.90 0.96 1.00 1.01 0.98 0.95 0.95 0.96 0.97 1.03 1.08 1.07 1.06 1.02 1.01 1.02 1.08 1.13 1.20 1.23 1.22 1.20 1.22 1.30 1.42 1.44 1.39 1.41 1.31 1.21 1.22 1.33 1.34 1.22
0.77 0.81 0.82 0.81 0.83 0.83 0.88 0.93 0.94 0.90 0.88 0.91 0.98 1.04 1.07 1.08 1.03 0.96 0.97 1.03 1.08 1.10 1.12 1.11 1.08 1.14 1.21 1.31 1.39 1.43 1.37 1.23 1.19 1.21 1.17 1.04 0.92 0.95
0.84 0.83 0.80 0.81 0.79 0.77 0.79 0.84 0.85 0.83 0.84 0.87 0.93 1.00 1.00 0.99 0.97 0.91 0.87 0.88 0.91 0.94 1.00 1.09 1.11 1.11 1.11 1.14 1.21 1.22 1.15 1.05 0.93 0.94 1.05 1.05 0.91 0.85